Terug naar catalogus

STARLINK-11568

ActiefCommunicatieVLEO
NORAD 63307·PAYLOAD·🇺🇸 United States

Gelanceerd Mar 18, 2025 vanaf Cape Canaveral Space Force Station

Loading…

Volgende Passages (komende 24 uur)

TLE

VersSource: CelesTrak SupGP

Epoch: Sep 14, 2026, 22:39 UTC

1 63307C 25057A   26257.94423611  .00005592  00000+0  43431-4 0  2576
2 63307  43.0005 203.4367 0001568 251.0920 199.4118 15.70838393    18

Volg STARLINK-11568 in realtime met AllMySat

Download on the App Store